Location: Vale
(35.4830°N, 81.3830°W)
Time: 22:11:21
(UTC-04:00)

Amateur Radio Satellites - All Passes

Search period start: 04 May 2015 21:41
Search period end: 05 May 2015 21:41
Location: Vale, 35.4830°N, 81.3830°W

Satellite Date Start Highest point End Downlink Frequencies (MHz)
Time Altitude Azimuth
AAUSAT CUBESAT 2 04 May 21:43:49 21:48:01 74° 78° (ENE) 21:52:14 437.432
HO-68 04 May 21:47:16 21:54:23 63° 258° (WSW) 22:01:31 435.675
DELFI C3 04 May 21:48:55 21:52:15 25° 72° (ENE) 21:55:39 145.870
SEEDS 04 May 21:51:35 21:55:49 60° 260° (W) 22:00:03 437.485
DX 1 04 May 21:52:18 21:53:58 12° 67° (ENE) 21:55:52 434.975-435.025
CINEMA 3 04 May 22:15:27 22:19:54 63° 260° (W) 22:24:34 145.822/145.860
CANX-2 04 May 22:18:32 22:21:56 22° 266° (W) 22:25:13 2200.000
UKube-1 04 May 22:18:51 22:22:13 23° 70° (ENE) 22:25:41 .
AISAT 04 May 22:25:14 22:27:22 14° 67° (ENE) 22:29:43 437.250
CUTE 1.7 + AOD 2 04 May 22:26:17 22:29:30 20° 267° (W) 22:32:35 437.475
FUNcube-1 04 May 22:29:16 22:33:36 57° 75° (ENE) 22:38:04 145.935
RS-15 04 May 22:33:48 22:45:21 66° 56° (NE) 22:57:25 29.354- 29.394
Oscar 11 04 May 22:34:22 22:38:41 63° 259° (W) 22:43:01 145.826/435.025
O/OREOS (USA 219) 04 May 22:38:10 22:39:42 11° 305° (NW) 22:40:59 437.305
CUBEBUG 2 04 May 22:42:47 22:47:12 61° 260° (W) 22:51:48 437.445
Cosmos 2491 04 May 22:44:07 22:52:52 87° 93° (E) 23:01:42 435.465 / 435.565
COMPASS 1 04 May 22:47:07 22:49:57 17° 268° (W) 22:52:38 437.405
UWE-3 04 May 22:47:11 22:51:37 68° 260° (W) 22:56:13 435.000/436.395/437.385
DOVE 4 04 May 22:49:23 22:51:38 13° 271° (W) 22:53:43 437.250
Cosmos 2504 04 May 22:54:53 22:58:02 13° 62° (ENE) 23:01:39 435.465 / 435.565
YUBILEINY 04 May 22:55:40 23:03:54 47° 270° (W) 23:11:59 435.215
JUGNU 04 May 22:58:25 23:02:10 17° 177° (S) 23:05:57 437.505
ZACube-1 04 May 22:58:56 23:03:19 63° 260° (W) 23:07:50 437.345
ANTELSAT 04 May 23:01:57 23:04:50 17° 91° (E) 23:07:51 437.575/2403.000
HUMSAT D 04 May 23:06:51 23:11:06 73° 77° (ENE) 23:15:25 437.325/437.525
CUBEBUG 1 04 May 23:13:38 23:16:52 21° 70° (ENE) 23:20:12 437.445
NANOSAT C BR1 04 May 23:21:59 23:23:09 11° 90° (E) 23:24:36 145.865
50 SAT 04 May 23:23:41 23:27:41 68° 77° (ENE) 23:31:43 437.505
DELFI C3 04 May 23:24:15 23:27:22 20° 266° (W) 23:30:23 145.870
DX 1 04 May 23:25:37 23:29:50 51° 260° (W) 23:34:04 434.975-435.025
SRMSAT 04 May 23:28:12 23:31:20 15° 171° (S) 23:34:30 437.500
POPSAT HIP 1 04 May 23:29:05 23:31:18 14° 91° (E) 23:33:44 437.405
VELOX 1 04 May 23:37:08 23:41:31 90° 256° (WSW) 23:45:57 145.980
ESTCUBE 1 04 May 23:37:45 23:42:04 48° 74° (ENE) 23:46:24 437.505/2401.250
TIGRISAT 04 May 23:45:48 23:50:20 52° 99° (E) 23:54:45 435.000
BEESAT 3 04 May 23:49:51 23:52:34 18° 111° (ESE) 23:55:26 437.485
DUCHIFAT 1 04 May 23:50:37 23:54:08 25° 95° (E) 23:57:44 145.980
UKube-1 04 May 23:54:39 23:58:17 25° 264° (W) 00:01:50 .
UNISAT 6 04 May 23:54:46 23:59:25 69° 100° (E) 00:03:55 437.425
SPROUT 04 May 23:54:50 23:57:21 16° 69° (ENE) 00:00:03 437.525
AISAT 04 May 23:59:22 00:03:36 47° 261° (W) 00:07:52 437.250
POLYITAN 1 05 May 00:02:14 00:06:14 36° 98° (E) 00:10:14 437.675
BEESAT 2 05 May 00:04:21 00:07:26 21° 112° (ESE) 00:10:40 435.950
FUNcube-1 05 May 00:09:08 00:10:24 11° 272° (W) 00:11:23 145.935
QB50P1 05 May 00:14:32 00:18:43 51° 99° (E) 00:22:55 145.935-145.965
AIST 1 05 May 00:18:29 00:22:45 90° 98° (E) 00:27:02
TISAT 1 05 May 00:19:32 00:22:48 23° 71° (ENE) 00:26:11 437.305
BUGSAT 1 05 May 00:32:16 00:36:25 55° 100° (E) 00:40:35 437.445
AIST 2 05 May 00:32:24 00:34:10 13° 109° (ESE) 00:36:10 435.215
ANTELSAT 05 May 00:37:31 00:41:51 39° 287° (WNW) 00:46:02 437.575/2403.000
QB50P2 05 May 00:44:24 00:48:42 67° 284° (WNW) 00:52:57 145.880/145.840
Cosmos 2504 05 May 00:45:11 00:52:53 90° 266° (W) 01:00:08 435.465 / 435.565
Cosmos 2491 05 May 00:45:37 00:51:08 17° 297° (WNW) 00:56:04 435.465 / 435.565
JUGNU 05 May 00:47:06 00:50:29 15° 188° (S) 00:53:50 437.505
RS-15 05 May 00:47:11 00:57:16 33° 253° (WSW) 01:07:14 29.354- 29.394
CUBEBUG 1 05 May 00:49:23 00:53:06 27° 264° (W) 00:56:47 437.445
NANOSAT C BR1 05 May 00:55:10 00:59:21 51° 286° (WNW) 01:03:31 145.865
SWISSCUBE 05 May 00:59:46 01:01:27 12° 66° (ENE) 01:03:25 437.505
POPSAT HIP 1 05 May 01:03:21 01:07:25 41° 287° (WNW) 01:11:26 437.405
SRMSAT 05 May 01:15:59 01:19:48 17° 181° (S) 01:23:35 437.500
ESTCUBE 1 05 May 01:17:03 01:19:16 13° 269° (W) 01:21:13 437.505/2401.250
TIGRISAT 05 May 01:24:12 01:26:39 14° 293° (WNW) 01:28:51 435.000
DUCHIFAT 1 05 May 01:26:25 01:29:53 23° 289° (WNW) 01:33:13 145.980
BEESAT 3 05 May 01:26:38 01:30:21 33° 305° (NW) 01:34:06 437.485
SPROUT 05 May 01:29:11 01:33:11 37° 263° (W) 01:37:10 437.525
UNISAT 6 05 May 01:34:30 01:35:38 11° 295° (WNW) 01:36:30 437.425
POLYITAN 1 05 May 01:39:02 01:41:53 17° 291° (WNW) 01:44:34 437.675
BEESAT 2 05 May 01:41:48 01:45:25 28° 307° (NW) 01:49:01 435.950
QB50P1 05 May 01:52:19 01:54:12 12° 293° (WNW) 01:55:52 145.935-145.965
CUSAT 1 05 May 01:52:29 01:54:58 12° 59° (ENE) 01:58:07 437.405
TISAT 1 05 May 01:55:05 01:58:31 24° 265° (W) 02:01:54 437.305
DANDE 05 May 01:59:01 01:59:57 10° 58° (ENE) 02:01:42 436.750
ITUPSAT 1 05 May 02:05:48 02:10:28 56° 74° (ENE) 02:15:10 437.325
AIST 2 05 May 02:08:14 02:12:22 50° 303° (WNW) 02:16:33 435.215
BUGSAT 1 05 May 02:10:08 02:11:29 11° 293° (WNW) 02:12:34 437.445
BEESAT 05 May 02:29:43 02:34:30 79° 257° (WSW) 02:39:18 436.000
SWISSCUBE 05 May 02:34:06 02:38:50 64° 259° (W) 02:43:35 437.505
Oscar 19 05 May 02:41:11 02:46:18 58° 100° (E) 02:51:24 437.125/150
Cosmos 2504 05 May 02:42:25 02:45:13 12° 280° (W) 02:47:21 435.465 / 435.565
KKS-1 05 May 02:50:45 02:54:30 28° 71° (ENE) 02:58:22 437.445
SRMSAT 05 May 03:05:29 03:08:15 13° 191° (S) 03:10:57 437.500
GONETS M04 05 May 03:19:27 03:28:10 60° 79° (E) 03:36:49
STARS 05 May 03:19:37 03:23:38 36° 72° (ENE) 03:27:43 437.465
Gurwin Techsat 1B 05 May 03:30:31 03:35:34 44° 98° (E) 03:40:39 435.225
CUSAT 1 05 May 03:31:13 03:39:28 64° 78° (ENE) 03:47:21 437.405
DANDE 05 May 03:36:51 03:45:06 58° 77° (ENE) 03:53:21 436.750
ITAMSAT 1 05 May 03:38:59 03:44:08 61° 101° (E) 03:49:16 435.822/435.867
AO-7 05 May 03:44:39 03:46:00 11° 87° (E) 03:48:15 29.400- 29.500
ITUPSAT 1 05 May 03:46:35 03:48:47 13° 270° (W) 03:50:42 437.325
Oscar 19 05 May 04:22:08 04:25:13 16° 294° (WNW) 04:28:05 437.125/150
JAS-2 05 May 04:26:15 04:30:16 21° 91° (E) 04:34:16 435.910
KKS-1 05 May 04:27:39 04:31:10 22° 266° (W) 04:34:35 437.445
MOZHAYETS 4 05 May 04:33:16 04:36:59 25° 70° (ENE) 04:40:46
Cosmos 2499 05 May 04:34:26 04:40:25 27° 70° (ENE) 04:46:22 435.465 / 435.565
STARS 05 May 04:57:22 05:00:16 17° 268° (W) 05:03:00 437.465
HORYU 2 05 May 05:07:59 05:12:29 86° 103° (ESE) 05:16:56 437.375
Gurwin Techsat 1B 05 May 05:11:22 05:15:16 20° 293° (WNW) 05:19:00 435.225
CUSAT 1 05 May 05:15:03 05:21:40 26° 273° (W) 05:27:47 437.405
GONETS M04 05 May 05:17:28 05:24:28 26° 275° (W) 05:31:06
ITAMSAT 1 05 May 05:20:16 05:23:11 15° 295° (WNW) 05:25:52 435.822/435.867
DANDE 05 May 05:20:51 05:28:02 31° 272° (W) 05:34:54 436.750
AO-7 05 May 05:31:59 05:40:20 74° 105° (ESE) 05:48:42 29.400- 29.500
M-CUBED/EXP-1 PRIME 05 May 05:53:03 05:55:50 16° 63° (ENE) 05:58:46 437.505
MOZHAYETS 4 05 May 06:10:08 06:14:07 27° 265° (W) 06:18:02
JAS-2 05 May 06:10:24 06:15:45 40° 290° (WNW) 06:20:38 435.910
STRAND 1 05 May 06:11:23 06:12:03 10° 64° (ENE) 06:13:05 437.568
PCSat 05 May 06:19:46 06:24:57 50° 112° (ESE) 06:30:12 145.827
Cubesat XI-IV 05 May 06:23:12 06:24:24 11° 89° (E) 06:26:00 437.490
AUBIESAT-1 05 May 06:23:53 06:27:56 29° 67° (ENE) 06:31:58 437.475
Cosmos 2499 05 May 06:26:55 06:33:53 45° 270° (W) 06:40:29 435.465 / 435.565
CUBESAT XI-V 05 May 06:38:48 06:43:06 41° 74° (ENE) 06:47:26 437.345
O/OREOS (USA 219) 05 May 07:08:14 07:12:44 76° 69° (ENE) 07:17:10 437.305
M-CUBED/EXP-1 PRIME 05 May 07:25:35 07:30:19 54° 256° (WSW) 07:34:57 437.505
AO-7 05 May 07:26:11 07:32:28 23° 301° (WNW) 07:38:25 29.400- 29.500
PRISM 05 May 07:26:59 07:31:07 85° 78° (ENE) 07:35:16 437.425
ISS 05 May 07:34:50 07:36:59 17° 129° (SE) 07:39:12 145.825
STRAND 1 05 May 07:45:34 07:50:40 83° 256° (WSW) 07:55:48 437.568
CUTE-I 05 May 07:46:52 07:52:13 82° 101° (ESE) 07:57:34 437.470
AUBIESAT-1 05 May 07:58:32 08:02:38 27° 260° (W) 08:06:35 437.475
Cubesat XI-IV 05 May 07:59:49 08:05:09 75° 285° (WNW) 08:10:29 437.490
PCSat 05 May 08:04:34 08:08:43 21° 309° (NW) 08:12:43 145.827
CUBESAT XI-V 05 May 08:17:52 08:20:47 16° 269° (W) 08:23:28 437.345
SO-50 05 May 08:32:25 08:35:08 16° 109° (ESE) 08:38:06 436.795
BRITE-PL 05 May 08:55:19 09:00:14 33° 96° (E) 09:05:22 437.365/2234.400
Cosmos 2491 05 May 08:58:43 09:06:43 38° 74° (ENE) 09:14:49 435.465 / 435.565
ISS 05 May 09:10:06 09:13:08 36° 323° (NW) 09:16:11 145.825
DOVE 4 05 May 09:11:46 09:15:31 20° 92° (E) 09:19:27 437.250
HO-68 05 May 09:18:52 09:24:56 30° 95° (E) 09:31:08 435.675
GOMX 1 05 May 09:25:58 09:31:07 43° 97° (E) 09:36:20 467.674
CUTE-I 05 May 09:29:53 09:31:42 11° 297° (WNW) 09:33:11 437.470
AAUSAT CUBESAT 2 05 May 09:31:30 09:33:40 14° 91° (E) 09:36:02 437.432
SEEDS 05 May 09:39:29 09:43:03 27° 95° (E) 09:46:39 437.485
BEESAT 3 05 May 09:47:48 09:51:48 54° 58° (ENE) 09:55:45 437.485
YUBILEINY 05 May 09:56:02 10:04:04 43° 89° (E) 10:12:14 435.215
ANTELSAT 05 May 09:59:37 10:01:04 12° 66° (ENE) 10:02:48 437.575/2403.000
BEESAT 2 05 May 10:03:15 10:07:21 67° 59° (ENE) 10:11:22 435.950
CANX-2 05 May 10:05:48 10:10:04 82° 102° (ESE) 10:14:17 2200.000
SO-50 05 May 10:10:47 10:15:17 48° 304° (NW) 10:19:56 436.795
CUTE 1.7 + AOD 2 05 May 10:13:14 10:17:31 90° 101° (E) 10:21:44 437.475
CINEMA 3 05 May 10:13:24 10:18:10 41° 97° (E) 10:22:50 145.822/145.860
FUNcube-1 05 May 10:22:27 10:24:49 14° 90° (E) 10:27:24 145.935
Oscar 11 05 May 10:25:09 10:28:53 28° 96° (E) 10:32:38 145.826/435.025
AIST 1 05 May 10:29:56 10:32:32 16° 73° (ENE) 10:35:19
COMPASS 1 05 May 10:31:58 10:36:09 83° 283° (WNW) 10:40:18 437.405
AIST 2 05 May 10:32:51 10:36:51 40° 56° (NE) 10:40:47 435.215
BRITE-PL 05 May 10:33:53 10:38:38 30° 289° (WNW) 10:43:25 437.365/2234.400
CUBEBUG 2 05 May 10:37:13 10:41:35 36° 97° (E) 10:45:53 437.445
UWE-3 05 May 10:40:36 10:44:43 31° 95° (E) 10:48:49 435.000/436.395/437.385
TIGRISAT 05 May 10:41:33 10:45:37 32° 72° (ENE) 10:49:49 435.000
DUCHIFAT 1 05 May 10:41:40 10:43:38 13° 68° (ENE) 10:45:48 145.980
DOVE 4 05 May 10:48:25 10:53:28 44° 287° (WNW) 10:58:28 437.250
UNISAT 6 05 May 10:50:33 10:54:53 42° 73° (ENE) 10:59:19 437.425
ZACube-1 05 May 10:51:03 10:55:07 32° 96° (E) 10:59:08 437.345
POLYITAN 1 05 May 10:53:10 10:56:09 19° 70° (ENE) 10:59:18 437.675
Cosmos 2491 05 May 10:55:29 11:03:40 42° 271° (W) 11:11:40 435.465 / 435.565
HUMSAT D 05 May 10:55:33 10:57:59 15° 91° (E) 11:00:34 437.325/437.525
GOMX 1 05 May 11:04:44 11:08:58 23° 291° (WNW) 11:13:06 467.674
QB50P1 05 May 11:04:48 11:08:16 26° 71° (ENE) 11:11:49 145.935-145.965
DELFI C3 05 May 11:05:32 11:09:32 65° 101° (E) 11:13:30 145.870
AAUSAT CUBESAT 2 05 May 11:05:39 11:09:30 37° 286° (WNW) 11:13:17 437.432
HO-68 05 May 11:06:04 11:12:50 45° 292° (WNW) 11:19:30 435.675
50 SAT 05 May 11:06:54 11:07:10 10° 90° (E) 11:07:43 437.505
SEEDS 05 May 11:15:32 11:18:43 20° 290° (WNW) 11:21:47 437.485
DX 1 05 May 11:17:05 11:21:00 32° 97° (E) 11:24:58 434.975-435.025
BUGSAT 1 05 May 11:20:04 11:23:19 25° 71° (ENE) 11:26:40 437.445
BEESAT 3 05 May 11:28:38 11:29:22 10° 251° (WSW) 11:29:52 437.485
Cosmos 2504 05 May 11:30:17 11:34:01 14° 81° (E) 11:38:24 435.465 / 435.565
VELOX 1 05 May 11:31:24 11:34:48 22° 94° (E) 11:38:18 145.980
ANTELSAT 05 May 11:32:45 11:37:20 65° 259° (W) 11:42:01 437.575/2403.000
QB50P2 05 May 11:34:08 11:38:18 60° 75° (ENE) 11:42:31 145.880/145.840
ESTCUBE 1 05 May 11:35:20 11:37:13 13° 91° (E) 11:39:22 437.505/2401.250
UKube-1 05 May 11:44:17 11:48:36 65° 101° (E) 11:52:54 .
NANOSAT C BR1 05 May 11:44:24 11:48:36 78° 77° (ENE) 11:52:51 145.865
CINEMA 3 05 May 11:51:22 11:55:03 20° 291° (WNW) 11:58:34 145.822/145.860
POPSAT HIP 1 05 May 11:52:42 11:56:55 83° 258° (WSW) 12:01:11 437.405
YUBILEINY 05 May 11:52:55 12:01:00 37° 287° (WNW) 12:08:54 435.215
AISAT 05 May 11:53:01 11:57:14 40° 98° (E) 12:01:29 437.250
FUNcube-1 05 May 11:57:06 12:01:27 44° 286° (WNW) 12:05:40 145.935
Oscar 11 05 May 12:01:38 12:04:55 21° 290° (WNW) 12:08:05 145.826/435.025
AIST 1 05 May 12:06:27 12:10:20 33° 268° (W) 12:14:11
AIST 2 05 May 12:12:37 12:15:07 15° 250° (WSW) 12:17:26 435.215
CUBEBUG 2 05 May 12:14:32 12:18:01 20° 291° (WNW) 12:21:19 437.445
DUCHIFAT 1 05 May 12:15:05 12:19:06 44° 261° (W) 12:23:10 145.980
UWE-3 05 May 12:17:28 12:21:05 22° 290° (WNW) 12:24:32 435.000/436.395/437.385
TIGRISAT 05 May 12:18:52 12:22:26 21° 267° (W) 12:25:55 435.000
VERMONT LUNAR 05 May 12:20:51 12:24:01 47° 152° (SSE) 12:27:14 437.305
ZACube-1 05 May 12:27:50 12:31:16 21° 291° (WNW) 12:34:34 437.345
POLYITAN 1 05 May 12:28:09 12:31:54 30° 264° (W) 12:35:39 437.675
UNISAT 6 05 May 12:28:55 12:31:53 16° 269° (W) 12:34:43 437.425
HUMSAT D 05 May 12:29:56 12:33:56 37° 287° (WNW) 12:37:50 437.325/437.525
50 SAT 05 May 12:38:27 12:42:19 47° 285° (WNW) 12:46:06 437.505
CUBEBUG 1 05 May 12:40:23 12:44:47 66° 101° (ESE) 12:49:09 437.445
QB50P1 05 May 12:40:48 12:44:07 22° 266° (W) 12:47:22 145.935-145.965
RS-15 05 May 12:53:37 13:04:02 56° 112° (ESE) 13:14:42 29.354- 29.394
DX 1 05 May 12:53:54 12:57:04 19° 291° (WNW) 13:00:06 434.975-435.025
BUGSAT 1 05 May 12:55:43 12:58:47 20° 266° (W) 13:01:46 437.445
PHONESAT 2.4 05 May 13:03:44 13:06:57 33° 149° (SSE) 13:10:11 2401.200-2431.200
VELOX 1 05 May 13:07:30 13:11:23 29° 289° (WNW) 13:15:12 145.980
ESTCUBE 1 05 May 13:10:05 13:14:25 49° 286° (WNW) 13:18:45 437.505/2401.250
Cosmos 2504 05 May 13:17:37 13:26:30 84° 95° (E) 13:35:09 435.465 / 435.565
SPROUT 05 May 13:18:35 13:22:45 45° 99° (E) 13:26:55 437.525
UKube-1 05 May 13:23:58 13:24:16 10° 294° (WNW) 13:24:18 .
AISAT 05 May 13:30:39 13:33:33 17° 292° (WNW) 13:36:17 437.250
TISAT 1 05 May 13:41:38 13:45:53 64° 101° (E) 13:50:07 437.305
Oscar 19 05 May 13:54:54 13:59:59 61° 74° (ENE) 14:05:07 437.125/150
VERMONT LUNAR 05 May 13:58:17 14:01:28 43° 348° (NNW) 14:04:41 437.305
ISS 05 May 14:05:19 14:05:48 10° 22° (NNE) 14:06:22 145.825
ITUPSAT 1 05 May 14:10:31 14:13:43 18° 93° (E) 14:17:04 437.325
CUBEBUG 1 05 May 14:20:14 14:20:40 10° 294° (WNW) 14:20:49 437.445
GONETS M04 05 May 14:27:24 14:29:10 11° 79° (ENE) 14:31:49
BEESAT 05 May 14:33:21 14:37:38 33° 97° (E) 14:41:57 436.000
SWISSCUBE 05 May 14:37:37 14:42:06 41° 99° (E) 14:46:35 437.505
JAS-2 05 May 14:39:35 14:39:35 10° 60° (ENE) 14:40:12 435.910
AO-7 05 May 14:40:04 14:43:55 15° 54° (NE) 14:48:18 29.400- 29.500
PHONESAT 2.4 05 May 14:41:35 14:45:04 55° 344° (NNW) 14:48:35 2401.200-2431.200
Gurwin Techsat 1B 05 May 14:48:33 14:53:40 52° 73° (ENE) 14:58:50 435.225
ITAMSAT 1 05 May 14:53:56 14:59:04 68° 75° (ENE) 15:04:13 435.822/435.867
SPROUT 05 May 14:56:08 14:58:30 14° 292° (WNW) 15:00:39 437.525
RS-15 05 May 15:06:44 15:16:50 40° 314° (NW) 15:27:03 29.354- 29.394
PCSat 05 May 15:11:13 15:15:23 23° 51° (NE) 15:19:41 145.827
Cosmos 2504 05 May 15:15:06 15:21:03 18° 294° (WNW) 15:26:23 435.465 / 435.565
VERMONT LUNAR 05 May 15:36:11 15:39:16 33° 4° (N) 15:42:22 437.305
Oscar 19 05 May 15:37:16 15:39:50 13° 270° (W) 15:42:06 437.125/150
ISS 05 May 15:39:30 15:42:44 60° 40° (NE) 15:45:57 145.825
ITUPSAT 1 05 May 15:47:21 15:51:48 38° 288° (WNW) 15:56:10 437.325
HORYU 2 05 May 16:03:06 16:07:28 53° 74° (ENE) 16:11:53 437.375
BEESAT 05 May 16:11:38 16:15:18 22° 291° (WNW) 16:18:51 436.000
JAS-2 05 May 16:16:01 16:23:39 62° 73° (ENE) 16:30:49 435.910
GONETS M04 05 May 16:16:02 16:24:45 75° 95° (E) 16:33:36
SWISSCUBE 05 May 16:16:24 16:19:41 18° 292° (WNW) 16:22:47 437.505
PHONESAT 2.4 05 May 16:20:21 16:23:38 35° 1° (N) 16:26:58 2401.200-2431.200
KKS-1 05 May 16:20:33 16:25:05 89° 105° (ESE) 16:29:34 437.445
AO-7 05 May 16:27:20 16:35:34 76° 71° (ENE) 16:43:52 29.400- 29.500
Gurwin Techsat 1B 05 May 16:30:39 16:34:02 16° 269° (W) 16:37:10 435.225
CUSAT 1 05 May 16:35:45 16:40:05 71° 96° (E) 16:46:01 437.405
ITAMSAT 1 05 May 16:37:12 16:39:09 12° 271° (W) 16:40:43 435.822/435.867
DANDE 05 May 16:46:17 16:50:17 63° 95° (E) 16:55:47 436.750
STARS 05 May 16:48:14 16:52:42 72° 284° (WNW) 16:57:07 437.465
PCSat 05 May 16:53:54 16:59:04 46° 249° (WSW) 17:04:11 145.827
Cosmos 2499 05 May 17:06:27 17:13:20 28° 86° (E) 17:20:16 435.465 / 435.565
VERMONT LUNAR 05 May 17:13:34 17:16:56 78° 22° (NNE) 17:20:18 437.305
ISS 05 May 17:18:18 17:18:44 10° 233° (SW) 17:19:01 145.825
RS-15 05 May 17:28:14 17:33:47 14° 346° (NNW) 17:39:08 29.354- 29.394
CUTE-I 05 May 17:30:15 17:31:36 11° 63° (ENE) 17:33:17 437.470
Cubesat XI-IV 05 May 17:41:40 17:44:32 15° 65° (ENE) 17:47:39 437.490
HORYU 2 05 May 17:42:43 17:44:31 12° 270° (W) 17:46:00 437.375
PHONESAT 2.4 05 May 17:58:39 18:02:12 62° 18° (NNE) 18:05:45 2401.200-2431.200
JAS-2 05 May 18:02:49 18:09:02 24° 268° (W) 18:14:41 435.910
MOZHAYETS 4 05 May 18:07:29 18:12:05 88° 102° (ESE) 18:16:37
GONETS M04 05 May 18:16:17 18:22:41 21° 294° (WNW) 18:28:39
CUSAT 1 05 May 18:22:11 18:24:09 12° 302° (WNW) 18:25:54 437.405
AO-7 05 May 18:23:23 18:29:14 20° 268° (W) 18:34:37 29.400- 29.500
DANDE 05 May 18:33:17 18:34:48 11° 303° (WNW) 18:36:03 436.750
CUBESAT XI-V 05 May 18:40:10 18:42:13 13° 90° (E) 18:44:32 437.345
SO-50 05 May 18:44:54 18:49:52 67° 59° (ENE) 18:54:42 436.795
VERMONT LUNAR 05 May 18:51:35 18:54:07 19° 214° (SW) 18:56:35 437.305
Cosmos 2499 05 May 18:57:28 19:06:07 57° 281° (W) 19:14:21 435.465 / 435.565
CUTE-I 05 May 19:05:44 19:11:04 83° 256° (WSW) 19:16:24 437.470
M-CUBED/EXP-1 PRIME 05 May 19:12:52 19:14:11 12° 94° (E) 19:15:40 437.505
PRISM 05 May 19:13:53 19:16:03 14° 92° (E) 19:18:26 437.425
Cubesat XI-IV 05 May 19:18:56 19:24:11 61° 259° (W) 19:29:27 437.490
PHONESAT 2.4 05 May 19:37:07 19:40:17 29° 212° (SSW) 19:43:25 2401.200-2431.200
O/OREOS (USA 219) 05 May 19:40:53 19:42:45 13° 100° (E) 19:44:52 437.305
AUBIESAT-1 05 May 19:43:02 19:46:07 26° 100° (E) 19:49:05 437.475
RS-15 05 May 19:46:11 19:52:52 17° 22° (NNE) 20:00:08 29.354- 29.394
HO-68 05 May 19:46:15 19:50:28 18° 60° (ENE) 19:55:01 435.675
STRAND 1 05 May 19:59:19 20:04:09 42° 99° (E) 20:09:01 437.568
BRITE-PL 05 May 20:04:34 20:07:49 22° 69° (ENE) 20:11:20 437.365/2234.400
YUBILEINY 05 May 20:11:26 20:16:23 17° 64° (ENE) 20:21:51 435.215
CUBESAT XI-V 05 May 20:15:31 20:20:01 50° 285° (WNW) 20:24:30 437.345
DOVE 4 05 May 20:16:21 20:18:05 12° 65° (ENE) 20:20:07 437.250
SO-50 05 May 20:27:48 20:29:54 12° 252° (WSW) 20:31:42 436.795
SEEDS 05 May 20:29:59 20:32:11 14° 69° (ENE) 20:34:34 437.485
GOMX 1 05 May 20:32:00 20:35:42 28° 70° (ENE) 20:39:41 467.674
M-CUBED/EXP-1 PRIME 05 May 20:45:57 20:49:22 33° 292° (WNW) 20:52:31 437.505
PRISM 05 May 20:47:56 20:51:42 36° 287° (WNW) 20:55:27 437.425
CANX-2 05 May 20:55:44 20:59:43 38° 73° (ENE) 21:03:44 2200.000
JUGNU 05 May 20:56:16 20:58:50 13° 169° (S) 21:01:30 437.505
CUTE 1.7 + AOD 2 05 May 21:03:01 21:07:04 42° 74° (ENE) 21:11:09 437.475
CINEMA 3 05 May 21:12:37 21:16:18 26° 70° (ENE) 21:20:14 145.822/145.860
O/OREOS (USA 219) 05 May 21:17:21 21:21:47 50° 293° (WNW) 21:26:13 437.305
Oscar 11 05 May 21:18:01 21:20:40 16° 69° (ENE) 21:23:29 145.826/435.025
AUBIESAT-1 05 May 21:18:24 21:20:45 16° 297° (WNW) 21:22:53 437.475
COMPASS 1 05 May 21:20:06 21:24:06 43° 74° (ENE) 21:28:09 437.405
CUBEBUG 2 05 May 21:33:01 21:36:24 22° 69° (ENE) 21:40:00 437.445
